FW3318 Weather Reports


time (UTC)temp
F
wind
direction
speed
knots
gust
knots
rain 1hr
in
rain 24hr
in
rain mn
in
humidity
%
barometer
mb
20260502232539 54 192 1.7 11.3 0.00 0.00 0.00 44 1009.8
20260502232037 54 192 4.3 9.6 0.00 0.00 0.00 44 1009.8
20260502231539 54 219 2.6 9.6 0.00 0.00 0.00 42 1009.6
20260502231036 54 215 1.7 9.6 0.00 0.00 0.00 44 1009.6
20260502230537 53 137 3.5 11.3 0.00 0.00 0.00 45 1009.4
20260502230036 53 267 1.7 11.3 0.00 0.00 0.00 46 1009.6
20260502225535 53 192 4.3 14.8 0.00 0.00 0.00 43 1009.5
20260502225035 53 136 2.6 14.8 0.00 0.00 0.00 43 1009.4
20260502224535 53 155 2.6 7.8 0.00 0.00 0.00 41 1009.4
20260502224035 53 169 2.6 9.6 0.00 0.00 0.00 42 1009.5
20260502223535 54 196 3.5 12.2 0.00 0.00 0.00 42 1009.4
20260502223038 53 226 2.6 12.2 0.00 0.00 0.00 42 1009.4
20260502222534 54 163 3.5 8.7 0.00 0.00 0.00 42 1009.4
20260502222036 54 228 4.3 9.6 0.00 0.00 0.00 42 1009.3
20260502221533 53 167 3.5 7.8 0.00 0.00 0.00 41 1009.2
20260502221034 53 180 2.6 9.6 0.00 0.00 0.00 41 1009.3
20260502220532 54 168 2.6 13.0 0.00 0.00 0.00 42 1009.3
20260502220031 54 206 1.7 9.6 0.00 0.00 0.00 42 1009.2
20260502215530 54 221 4.3 10.4 0.00 0.00 0.00 41 1009.1
20260502215030 54 120 2.6 7.0 0.00 0.00 0.00 44 1009.0
20260502214531 54 232 2.6 12.2 0.00 0.00 0.00 44 1009.0
20260502214031 54 239 1.7 8.7 0.00 0.00 0.00 41 1008.9
20260502213529 53 192 2.6 7.0 0.00 0.00 0.00 42 1009.0
20260502213029 53 163 1.7 8.7 0.00 0.00 0.00 43 1009.0
20260502212529 54 269 2.6 13.0 0.00 0.00 0.00 42 1008.9
20260502212028 54 129 4.3 13.0 0.00 0.00 0.00 41 1008.7
20260502211538 54 184 1.7 8.7 0.00 0.00 0.00 44 1008.7
20260502211026 54 207 1.7 7.8 0.00 0.00 0.00 43 1008.7
20260502210525 54 267 1.7 9.6 0.00 0.00 0.00 44 1008.7
20260502210032 54 208 3.5 9.6 0.00 0.00 0.00 43 1008.7
20260502205524 53 140 0.9 7.8 0.00 0.00 0.00 47 1008.7
20260502205025 53 157 2.6 7.8 0.00 0.00 0.00 43 1008.7
20260502204523 53 279 1.7 8.7 0.00 0.00 0.00 45 1008.6
20260502204022 53 173 3.5 8.7 0.00 0.00 0.00 44 1008.6
20260502203522 54 191 1.7 8.7 0.00 0.00 0.00 47 1008.6
20260502203019 53 126 1.7 7.8 0.00 0.00 0.00 46 1008.6
20260502202519 53 304 1.7 7.8 0.00 0.00 0.00 46 1008.6
20260502202018 52 167 2.6 11.3 0.00 0.00 0.00 47 1008.5
20260502201518 52 236 3.5 11.3 0.00 0.00 0.00 46 1008.5
20260502201017 52 261 1.7 6.1 0.00 0.00 0.00 49 1008.4
20260502200517 52 285 1.7 5.2 0.00 0.00 0.00 49 1008.4
20260502200023 52 238 0.9 6.1 0.00 0.00 0.00 52 1008.3
20260502195516 52 297 2.6 6.1 0.00 0.00 0.00 49 1008.3
20260502195014 52 173 1.7 4.3 0.00 0.00 0.00 49 1008.3
20260502194512 52 46 0.9 4.3 0.00 0.00 0.00 51 1008.1
20260502194013 51 215 1.7 2.6 0.00 0.00 0.00 51 1008.0
20260502193517 51 171 0.9 2.6 0.00 0.00 0.00 51 1008.0
20260502193010 51 186 0.0 2.6 0.00 0.00 0.00 52 1008.0
20260502192510 51 186 0.9 2.6 0.00 0.00 0.00 51 1007.8
20260502192008 51 271 0.9 2.6 0.00 0.00 0.00 54 1007.8
20260502191506 50 264 0.9 2.6 0.00 0.00 0.00 56 1007.7
20260502191005 49 22 0.0 2.6 0.00 0.00 0.00 57 1007.7
20260502190604 49 315 0.0 2.6 0.00 0.00 0.00 57 1007.6
20260502190002 48 290 0.0 2.6 0.00 0.00 0.00 57 1007.6
20260502185501 48 133 0.0 0.0 0.00 0.00 0.00 58 1007.5
20260502185100 47 133 0.0 0.0 0.00 0.00 0.00 57 1007.6
20260502184601 47 133 0.0 0.0 0.00 0.00 0.00 58 1007.5
20260502184058 47 126 0.0 0.0 0.00 0.00 0.00 59 1007.5
20260502183557 47 109 0.0 0.0 0.00 0.00 0.00 61 1007.3
20260502183107 47 109 0.0 0.0 0.00 0.00 0.00 61 1007.3
20260502182559 47 109 0.0 0.0 0.00 0.00 0.00 61 1007.3
20260502182056 47 109 0.0 0.0 0.00 0.00 0.00 63 1007.3
20260502181555 47 109 0.0 0.0 0.00 0.00 0.00 63 1007.2
20260502181053 47 109 0.0 0.0 0.00 0.00 0.00 63 1007.1
20260502180552 47 109 0.0 0.0 0.00 0.00 0.00 64 1007.0
20260502164034 42 104 0.9 1.7 0.00 0.00 0.00 78 1005.7
20260502163536 41 104 0.9 3.5 0.00 0.00 0.00 79 1005.7
20260502163040 41 104 0.9 3.5 0.00 0.00 0.00 79 1005.6
20260502162530 40 110 1.7 3.5 0.00 0.00 0.00 79 1005.6
20260502162034 40 137 0.9 3.5 0.00 0.00 0.00 81 1005.5
20260502161529 40 147 0.0 2.6 0.00 0.00 0.00 82 1005.5
20260502161028 39 134 0.9 2.6 0.00 0.00 0.00 83 1005.4
20260502160527 39 111 0.0 2.6 0.00 0.00 0.00 83 1005.4
20260502152018 38 229 0.0 0.0 0.00 0.00 0.00 85 1004.7
20260502151518 38 229 0.0 0.0 0.00 0.00 0.00 85 1004.7
20260502151016 38 229 0.0 0.0 0.00 0.00 0.00 85 1004.4
20260502150516 37 229 0.0 0.0 0.00 0.00 0.00 84 1004.4
20260502130556 39 234 0.0 0.9 0.00 0.00 0.00 79 1002.6
20260502123552 39 250 0.9 3.5 0.00 0.00 0.00 77 1002.1
20260502123048 39 213 0.0 3.5 0.00 0.00 0.00 77 1001.9
20260502122551 40 238 0.9 5.2 0.00 0.00 0.00 77 1001.8
20260502122049 40 240 0.9 5.2 0.00 0.00 0.00 76 1001.7
20260502121546 40 230 1.7 5.2 0.00 0.00 0.00 76 1001.6
20260502121046 40 225 1.7 5.2 0.00 0.00 0.00 76 1001.3
20260502120545 40 238 0.9 6.1 0.00 0.00 0.00 76 1001.4
20260502115548 40 211 1.7 4.3 0.00 0.00 0.00 76 1001.1
20260502115042 40 243 1.7 6.1 0.00 0.00 0.00 76 1001.0
20260502114643 40 211 1.7 6.1 0.00 0.00 0.00 76 1000.9
20260502114040 40 235 1.7 6.1 0.00 0.00 0.00 77 1000.8
20260502113539 39 196 1.7 7.0 0.00 0.00 0.00 77 1000.6
20260502113041 39 217 1.7 7.8 0.00 0.00 0.00 78 1000.4
20260502112535 38 261 2.6 7.8 0.00 0.00 0.00 79 1000.2
20260502112036 37 215 2.6 5.2 0.00 0.00 0.00 81 1000.0
20260502111535 37 222 1.7 5.2 0.00 0.00 0.00 82 999.9
20260502111032 36 249 0.9 5.2 0.00 0.00 0.00 84 999.7
20260502110531 36 211 1.7 3.5 0.00 0.00 0.00 85 999.6
20260502110036 36 233 0.9 3.5 0.00 0.00 0.00 86 999.5
20260502105530 36 244 0.9 2.6 0.00 0.00 0.00 86 999.4
20260502105028 36 292 0.9 1.7 0.00 0.00 0.00 86 999.3
20260502104526 36 304 0.9 1.7 0.00 0.00 0.00 86 999.2
20260502104025 36 280 0.9 1.7 0.00 0.00 0.00 86 999.1
20260502103525 36 191 0.0 1.7 0.00 0.00 0.00 86 999.0
20260502103031 36 315 0.0 2.6 0.00 0.00 0.00 86 998.8
20260502102524 36 315 0.9 2.6 0.00 0.00 0.00 85 998.7
20260502102023 36 149 0.0 0.0 0.00 0.00 0.00 86 998.6
20260502101540 36 148 0.0 1.7 0.00 0.00 0.00 85 998.6
20260502101020 36 148 0.0 1.7 0.00 0.00 0.00 85 998.5
20260502100519 37 148 0.9 1.7 0.00 0.00 0.00 85 998.4
20260502091507 37 312 0.0 0.0 0.00 0.00 0.00 86 997.4
20260502091006 37 312 0.0 0.0 0.00 0.00 0.00 86 997.2
20260502090505 37 312 0.0 0.0 0.00 0.00 0.00 86 997.0
20260502080108 38 312 0.0 0.0 0.00 0.00 0.00 85 996.2
20260502071054 39 312 0.0 0.0 0.00 0.00 0.00 84 995.5
20260502070554 39 312 0.0 0.0 0.00 0.00 0.00 84 995.5
20260502070109 40 312 0.0 0.0 0.00 0.00 0.00 83 995.6
20260502065554 40 312 0.0 0.0 0.00 0.00 0.00 83 995.6
20260502065053 40 312 0.0 0.0 0.00 0.00 0.00 83 995.6
20260502064556 40 312 0.0 0.0 0.00 0.00 0.00 83 995.5
20260502064053 40 312 0.0 0.0 0.00 0.00 0.00 83 995.5
20260502063553 41 312 0.0 0.0 0.00 0.00 0.00 82 995.4
20260502063058 41 312 0.0 0.0 0.00 0.00 0.00 82 995.5
20260502062553 41 312 0.0 0.0 0.00 0.00 0.00 82 995.4
20260502062055 41 312 0.0 0.0 0.00 0.00 0.00 82 995.2
20260502061557 41 312 0.0 0.0 0.00 0.00 0.00 81 995.3
20260502061052 41 312 0.0 0.0 0.00 0.00 0.00 82 995.3
20260502060552 41 312 0.0 0.0 0.00 0.00 0.00 81 995.3
20260502060052 41 312 0.0 0.0 0.00 0.00 0.00 81 995.4
20260502055552 42 312 0.0 0.0 0.00 0.00 0.00 82 995.4
20260502055052 42 312 0.0 0.0 0.00 0.00 0.00 82 995.4
20260502054556 42 311 0.0 0.0 0.00 0.00 0.00 81 995.4
20260502054050 42 311 0.0 0.0 0.00 0.00 0.00 81 995.3
20260502053550 42 311 0.0 0.0 0.00 0.00 0.00 80 995.3
20260502053051 42 311 0.0 0.0 0.00 0.00 0.00 80 995.2
20260502052551 43 311 0.0 0.0 0.00 0.00 0.00 80 995.4
20260502052053 43 311 0.0 0.0 0.00 0.00 0.00 80 995.3
20260502051610 43 311 0.0 0.0 0.00 0.00 0.00 79 995.3
20260502051050 43 311 0.0 1.7 0.00 0.00 0.00 78 995.2
20260502050550 43 311 0.0 1.7 0.00 0.00 0.00 76 995.3
20260502050054 43 311 0.9 1.7 0.00 0.00 0.00 74 995.3
20260502045549 44 311 0.0 1.7 0.00 0.00 0.00 77 995.4
20260502045047 44 311 0.0 1.7 0.00 0.00 0.00 77 995.5
20260502044548 44 311 0.9 1.7 0.00 0.00 0.00 76 995.5
20260502044047 44 311 0.0 0.9 0.00 0.00 0.00 73 995.6
20260502043547 44 309 0.0 0.0 0.00 0.00 0.00 75 995.6
20260502043051 44 302 0.0 0.0 0.00 0.00 0.00 75 995.6
20260502042547 44 302 0.0 0.0 0.00 0.00 0.00 74 995.7
20260502042047 45 302 0.0 0.0 0.00 0.00 0.00 73 995.6
20260502041547 45 302 0.0 0.9 0.00 0.00 0.00 72 995.6
20260502041047 45 302 0.0 0.9 0.00 0.00 0.00 70 995.7
20260502040545 46 302 0.0 2.6 0.00 0.00 0.00 69 995.8
20260502040054 46 302 0.9 3.5 0.00 0.00 0.00 66 995.7
20260502035544 47 305 0.9 3.5 0.00 0.00 0.00 63 995.8
20260502035044 47 5 0.0 0.0 0.00 0.00 0.00 63 995.7
20260502034543 47 5 0.0 1.7 0.00 0.00 0.00 62 995.9
20260502034046 47 5 0.0 2.6 0.00 0.00 0.00 60 996.1
20260502033542 47 5 0.9 2.6 0.00 0.00 0.00 58 995.9
20260502033043 48 61 0.9 4.3 0.00 0.00 0.00 58 995.9
20260502032541 48 63 0.0 4.3 0.00 0.00 0.00 57 995.9
20260502032043 48 105 1.7 3.5 0.00 0.00 0.00 56 996.0
20260502031541 48 36 1.7 5.2 0.00 0.00 0.00 56 996.1
20260502031041 48 78 0.9 5.2 0.00 0.00 0.00 55 996.2
20260502030539 49 63 0.9 5.2 0.00 0.00 0.00 54 996.2
20260502030040 49 62 1.7 5.2 0.00 0.00 0.00 54 996.4
20260502025539 49 94 1.7 5.2 0.00 0.00 0.00 53 996.6
20260502025041 49 40 1.7 7.0 0.00 0.00 0.00 52 996.5
20260502024541 49 80 1.7 7.0 0.00 0.00 0.00 52 996.6
20260502024041 49 92 1.7 6.1 0.00 0.00 0.00 52 996.5
20260502023542 50 110 0.9 8.7 0.00 0.00 0.00 51 996.3
20260502023047 50 51 2.6 8.7 0.00 0.00 0.00 50 996.4
20260502022538 50 58 1.7 8.7 0.00 0.00 0.00 50 996.5
20260502022041 50 38 3.5 8.7 0.00 0.00 0.00 51 996.4
20260502021537 50 75 2.6 8.7 0.00 0.00 0.00 49 996.4
20260502021039 50 112 1.7 5.2 0.00 0.00 0.00 49 996.4
20260502020537 50 76 1.7 7.8 0.00 0.00 0.00 47 996.4
20260502020048 50 38 3.5 7.8 0.00 0.00 0.00 47 996.5
20260502015537 50 82 1.7 8.7 0.00 0.00 0.00 46 996.5
20260502015036 50 57 2.6 6.1 0.00 0.00 0.00 46 996.6
20260502014535 50 69 0.9 3.5 0.00 0.00 0.00 46 996.5
20260502014035 50 119 0.9 5.2 0.00 0.00 0.00 46 996.5
20260502013537 50 103 2.6 6.1 0.00 0.00 0.00 46 996.6
20260502013052 50 49 0.9 3.5 0.00 0.00 0.00 48 996.4
20260502012534 50 42 0.9 7.0 0.00 0.00 0.00 47 996.4
20260502012034 50 98 1.7 8.7 0.00 0.00 0.00 45 996.6
20260502011533 50 67 2.6 11.3 0.00 0.00 0.00 46 996.8
20260502011033 50 49 1.7 7.0 0.00 0.00 0.00 47 997.0
20260502010532 50 52 1.7 3.5 0.00 0.00 0.00 46 996.9
20260502010132 50 80 0.9 6.1 0.00 0.00 0.00 47 997.0
20260502005532 50 102 2.6 8.7 0.00 0.00 0.00 47 996.9
20260502005031 50 97 2.6 8.7 0.00 0.00 0.00 45 996.7
20260502004532 50 56 2.6 9.6 0.00 0.00 0.00 46 996.6
20260502004030 50 75 2.6 10.4 0.00 0.00 0.00 45 996.6
20260502003529 50 62 3.5 10.4 0.00 0.00 0.00 44 996.8
20260502003029 51 111 3.5 10.4 0.00 0.00 0.00 45 997.1
20260502002527 51 21 4.3 10.4 0.00 0.00 0.00 43 997.3
20260502002027 51 180 2.6 8.7 0.00 0.00 0.00 44 997.4
20260502001526 51 24 2.6 7.0 0.00 0.00 0.00 42 997.4
20260502001024 51 26 2.6 7.8 0.00 0.00 0.00 43 997.6
20260502000524 51 63 3.5 7.8 0.00 0.00 0.00 43 997.6
20260502000024 51 103 1.7 9.6 0.00 0.00 0.00 44 997.7
20260501235522 51 55 2.6 9.6 0.00 0.00 0.00 43 997.8
20260501235022 51 103 1.7 7.0 0.00 0.00 0.00 42 997.9
20260501234520 51 105 3.5 7.0 0.00 0.00 0.00 43 998.1
20260501234020 51 98 1.7 9.6 0.00 0.00 0.00 44 998.2
20260501233519 51 104 2.6 7.0 0.00 0.00 0.00 44 998.3
20260501233022 51 121 2.6 7.0 0.00 0.00 0.00 44 998.5